Location: Ernez
(36.4595°N, 29.8755°E)
Time: 00:54:37
(UTC+00:00)

Tsikada Rocket - Pass Details

Date: 13 November 2025
Orbit: 958 x 1008 km, 82.9° (Epoch: 06 December)

Event Time Altitude Azimuth Distance (km) Brightness Sun altitude
Rises 15:58:26 0° 350° (N) 3,744 7.0 -13.3°
Reaches altitude 10° 16:00:59 10° 349° (N) 2,788 6.4 -13.8°
Maximum altitude 16:07:21 71° 267° (W) 1,054 4.4 -15.1°
Drops below altitude 10° 16:13:38 10° 184° (S) 2,747 6.5 -16.3°
Sets 16:16:08 0° 182° (S) 3,686 7.2 -16.8°
